Location: Unspecified
(52.1971°N, 0.0000°E)
Time: 00:38:44
(UTC+00:00)

YUBILEINY - Pass Details

Date: 22 December 2019
Orbit: 1478 x 1509 km, 82.5° (Epoch: 17 January)

Event Time Altitude Azimuth Distance (km) Brightness Sun altitude
Rises 07:22:09 0° 348° (NNW) 4,613 ? -6.5°
Reaches altitude 10° 07:25:02 10° 347° (NNW) 3,630 ? -6.1°
Maximum altitude 07:33:42 74° 265° (W) 1,537 ? -5.0°
Drops below altitude 10° 07:42:22 10° 182° (S) 3,626 ? -3.9°
Sets 07:45:15 0° 181° (S) 4,606 ? -3.5°
